SB KEPS @ AMSAT $ORB14360.O Orbital Elements 14360.OSCAR
HR AMSAT ORBITAL ELEMENTS FOR OSCAR SATELLITES FROM WA5QGD FORT WORTH,TX December 26, 2014 BID: ORB14360.O TO ALL RADIO AMATEURS BT
Satellite: AO-07 Catalog number: 07530 Epoch time: 14360.22636848 Element set: 152 Inclination: 101.4982 deg RA of node: 335.9044 deg Eccentricity: 0.0011666 Arg of perigee: 280.8755 deg Mean anomaly: 149.5620 deg Mean motion: 12.53610274 rev/day Decay rate: -1.5e-07 rev/day^2 Epoch rev: 83558 Checksum: 296
Satellite: FO-29 Catalog number: 24278 Epoch time: 14358.57439729 Element set: 543 Inclination: 098.5203 deg RA of node: 346.1797 deg Eccentricity: 0.0350982 Arg of perigee: 163.5197 deg Mean anomaly: 310.7571 deg Mean motion: 13.53039775 rev/day Decay rate: -2.3e-07 rev/day^2 Epoch rev: 90641 Checksum: 340
Satellite: SO-33 Catalog number: 25509 Epoch time: 14358.92328762 Element set: 909 Inclination: 031.4311 deg RA of node: 159.4807 deg Eccentricity: 0.0348561 Arg of perigee: 345.7165 deg Mean anomaly: 179.1893 deg Mean motion: 14.29785776 rev/day Decay rate: 4.23e-06 rev/day^2 Epoch rev: 84446 Checksum: 349
Satellite: RS-22 Catalog number: 27939 Epoch time: 14360.44926787 Element set: 162 Inclination: 097.8216 deg RA of node: 165.2665 deg Eccentricity: 0.0012626 Arg of perigee: 214.0339 deg Mean anomaly: 146.0045 deg Mean motion: 14.65663810 rev/day Decay rate: 1.940e-05 rev/day^2 Epoch rev: 60088 Checksum: 312
Satellite: HO-68 Catalog number: 36122 Epoch time: 14360.17790670 Element set: 244 Inclination: 100.2220 deg RA of node: 045.9654 deg Eccentricity: 0.0007858 Arg of perigee: 157.1531 deg Mean anomaly: 202.9934 deg Mean motion: 13.16321913 rev/day Decay rate: -6.0e-07 rev/day^2 Epoch rev: 24169 Checksum: 279
Satellite: AO-73 Catalog number: 39444 Epoch time: 14359.25118741 Element set: 340 Inclination: 097.7537 deg RA of node: 063.2831 deg Eccentricity: 0.0060286 Arg of perigee: 343.5943 deg Mean anomaly: 016.3317 deg Mean motion: 14.79334964 rev/day Decay rate: 4.758e-05 rev/day^2 Epoch rev: 5769 Checksum: 337
Satellite: EO-79 Catalog number: 40025 Epoch time: 14360.45024247 Element set: 560 Inclination: 097.9675 deg RA of node: 255.4048 deg Eccentricity: 0.0014237 Arg of perigee: 033.9877 deg Mean anomaly: 326.2201 deg Mean motion: 14.86246615 rev/day Decay rate: 5.692e-05 rev/day^2 Epoch rev: 2813 Checksum: 309
/EX SB KEPS @ AMSAT $ORB14360.D Orbital Elements 14360.MICROS
HR AMSAT ORBITAL ELEMENTS FOR THE MICROSATS FROM WA5QGD FORT WORTH,TX December 26, 2014 BID: ORB14360.D TO ALL RADIO AMATEURS BT
Satellite: UO-11 Catalog number: 14781 Epoch time: 14359.81121155 Element set: 698 Inclination: 097.8272 deg RA of node: 055.9681 deg Eccentricity: 0.0007213 Arg of perigee: 276.7017 deg Mean anomaly: 083.3375 deg Mean motion: 14.82037370 rev/day Decay rate: 1.832e-05 rev/day^2 Epoch rev: 65634 Checksum: 315
Satellite: AO-16 Catalog number: 20439 Epoch time: 14360.05733976 Element set: 202 Inclination: 098.5263 deg RA of node: 293.9437 deg Eccentricity: 0.0009877 Arg of perigee: 316.3726 deg Mean anomaly: 104.4312 deg Mean motion: 14.32462178 rev/day Decay rate: 2.88e-06 rev/day^2 Epoch rev: 30195 Checksum: 311
Satellite: LO-19 Catalog number: 20442 Epoch time: 14358.88735846 Element set: 135 Inclination: 098.4974 deg RA of node: 292.8748 deg Eccentricity: 0.0010739 Arg of perigee: 307.0614 deg Mean anomaly: 052.9587 deg Mean motion: 14.32658604 rev/day Decay rate: 2.75e-06 rev/day^2 Epoch rev: 30198 Checksum: 343
Satellite: AO-27 Catalog number: 22825 Epoch time: 14359.87314094 Element set: 851 Inclination: 098.6874 deg RA of node: 305.1559 deg Eccentricity: 0.0009578 Arg of perigee: 096.9955 deg Mean anomaly: 332.1186 deg Mean motion: 14.29810039 rev/day Decay rate: 2.06e-06 rev/day^2 Epoch rev: 10817 Checksum: 338
Satellite: IO-26 Catalog number: 22826 Epoch time: 14359.46455512 Element set: 608 Inclination: 098.6817 deg RA of node: 304.9389 deg Eccentricity: 0.0010075 Arg of perigee: 091.1033 deg Mean anomaly: 269.1304 deg Mean motion: 14.30119383 rev/day Decay rate: 2.56e-06 rev/day^2 Epoch rev: 10825 Checksum: 298
Satellite: GO-32 Catalog number: 25397 Epoch time: 14359.84316050 Element set: 529 Inclination: 098.4972 deg RA of node: 310.9437 deg Eccentricity: 0.0002439 Arg of perigee: 107.5456 deg Mean anomaly: 305.1803 deg Mean motion: 14.23501421 rev/day Decay rate: 1.30e-06 rev/day^2 Epoch rev: 85513 Checksum: 287
Satellite: NO-44 Catalog number: 26931 Epoch time: 14360.22106637 Element set: 783 Inclination: 067.0520 deg RA of node: 263.2282 deg Eccentricity: 0.0007139 Arg of perigee: 269.2978 deg Mean anomaly: 090.7305 deg Mean motion: 14.30229368 rev/day Decay rate: 1.75e-06 rev/day^2 Epoch rev: 69106 Checksum: 303
Satellite: SO-50 Catalog number: 27607 Epoch time: 14359.82201332 Element set: 613 Inclination: 064.5578 deg RA of node: 007.9779 deg Eccentricity: 0.0069735 Arg of perigee: 323.3527 deg Mean anomaly: 036.2815 deg Mean motion: 14.74289976 rev/day Decay rate: 2.184e-05 rev/day^2 Epoch rev: 64572 Checksum: 339
Satellite: CO-55 Catalog number: 27844 Epoch time: 14359.87029058 Element set: 100 Inclination: 098.6973 deg RA of node: 005.8790 deg Eccentricity: 0.0010732 Arg of perigee: 084.2859 deg Mean anomaly: 035.0326 deg Mean motion: 14.21667770 rev/day Decay rate: 4.24e-06 rev/day^2 Epoch rev: 59581 Checksum: 325
Satellite: CO-57 Catalog number: 27848 Epoch time: 14359.97767363 Element set: 40 Inclination: 098.7068 deg RA of node: 005.8005 deg Eccentricity: 0.0010682 Arg of perigee: 090.1395 deg Mean anomaly: 332.3591 deg Mean motion: 14.21334054 rev/day Decay rate: 3.96e-06 rev/day^2 Epoch rev: 59574 Checksum: 326
Satellite: AO-51 Catalog number: 28375 Epoch time: 14360.06990532 Element set: 23 Inclination: 098.2747 deg RA of node: 300.6771 deg Eccentricity: 0.0084018 Arg of perigee: 132.0966 deg Mean anomaly: 228.7407 deg Mean motion: 14.41539679 rev/day Decay rate: 3.51e-06 rev/day^2 Epoch rev: 55155 Checksum: 312
Satellite: CP3 Catalog number: 31129 Epoch time: 14359.90072449 Element set: 932 Inclination: 097.9588 deg RA of node: 328.4729 deg Eccentricity: 0.0098537 Arg of perigee: 133.2076 deg Mean anomaly: 280.7728 deg Mean motion: 14.55289656 rev/day Decay rate: 1.607e-05 rev/day^2 Epoch rev: 40791 Checksum: 353
Satellite: CO-65 Catalog number: 32785 Epoch time: 14360.19020442 Element set: 149 Inclination: 097.6739 deg RA of node: 044.9772 deg Eccentricity: 0.0012189 Arg of perigee: 277.5459 deg Mean anomaly: 153.5011 deg Mean motion: 14.86144696 rev/day Decay rate: 3.162e-05 rev/day^2 Epoch rev: 36053 Checksum: 323
Satellite: PRISM Catalog number: 33493 Epoch time: 14360.45280438 Element set: 613 Inclination: 098.2517 deg RA of node: 184.5969 deg Eccentricity: 0.0016700 Arg of perigee: 173.6906 deg Mean anomaly: 186.4477 deg Mean motion: 14.91483318 rev/day Decay rate: 1.0274e-04 rev/day^2 Epoch rev: 32081 Checksum: 314
Satellite: SOHLA-1 Catalog number: 33496 Epoch time: 14359.89232483 Element set: 546 Inclination: 098.1901 deg RA of node: 121.5870 deg Eccentricity: 0.0006003 Arg of perigee: 005.9824 deg Mean anomaly: 105.5245 deg Mean motion: 14.71112056 rev/day Decay rate: 7.71e-06 rev/day^2 Epoch rev: 31769 Checksum: 292
Satellite: TISAT-1 Catalog number: 36799 Epoch time: 14360.24177554 Element set: 805 Inclination: 098.0160 deg RA of node: 093.8242 deg Eccentricity: 0.0014201 Arg of perigee: 057.4656 deg Mean anomaly: 355.0046 deg Mean motion: 14.87170953 rev/day Decay rate: 5.138e-05 rev/day^2 Epoch rev: 24124 Checksum: 297
Satellite: STUDSAT Catalog number: 36801 Epoch time: 14359.22274275 Element set: 964 Inclination: 098.0526 deg RA of node: 105.3379 deg Eccentricity: 0.0006485 Arg of perigee: 012.3544 deg Mean anomaly: 045.7362 deg Mean motion: 15.03718114 rev/day Decay rate: 3.2467e-04 rev/day^2 Epoch rev: 24175 Checksum: 296
Satellite: ALMASAT-1 Catalog number: 38078 Epoch time: 14360.04681765 Element set: 245 Inclination: 069.4627 deg RA of node: 312.3229 deg Eccentricity: 0.0534066 Arg of perigee: 135.3498 deg Mean anomaly: 229.1718 deg Mean motion: 14.64521134 rev/day Decay rate: 3.9348e-04 rev/day^2 Epoch rev: 14956 Checksum: 323
Satellite: XATCOBEO Catalog number: 38082 Epoch time: 14243.34478676 Element set: 563 Inclination: 069.3815 deg RA of node: 097.0364 deg Eccentricity: 0.0033293 Arg of perigee: 225.1799 deg Mean anomaly: 135.4582 deg Mean motion: 16.41261006 rev/day Decay rate: 1.3583328e-01 rev/day^2 Epoch rev: 13623 Checksum: 317
Satellite: CUBEBUG-1 Catalog number: 39153 Epoch time: 14360.21728190 Element set: 744 Inclination: 098.0293 deg RA of node: 080.0780 deg Eccentricity: 0.0018886 Arg of perigee: 092.4032 deg Mean anomaly: 267.9342 deg Mean motion: 14.78533280 rev/day Decay rate: 3.589e-05 rev/day^2 Epoch rev: 8991 Checksum: 321
Satellite: ESTCUBE-1 Catalog number: 39161 Epoch time: 14360.41630921 Element set: 788 Inclination: 098.0863 deg RA of node: 079.8303 deg Eccentricity: 0.0010533 Arg of perigee: 140.1332 deg Mean anomaly: 220.0660 deg Mean motion: 14.70635134 rev/day Decay rate: 3.315e-05 rev/day^2 Epoch rev: 8784 Checksum: 272
Satellite: DUCHIFAT-1 Catalog number: 40021 Epoch time: 14360.35380327 Element set: 563 Inclination: 097.9679 deg RA of node: 255.4154 deg Eccentricity: 0.0015037 Arg of perigee: 033.1077 deg Mean anomaly: 327.1070 deg Mean motion: 14.86719582 rev/day Decay rate: 7.599e-05 rev/day^2 Epoch rev: 2811 Checksum: 299
Satellite: NANOSATCBR1 Catalog number: 40024 Epoch time: 14360.37198981 Element set: 553 Inclination: 097.9672 deg RA of node: 255.3517 deg Eccentricity: 0.0013990 Arg of perigee: 035.1916 deg Mean anomaly: 325.0176 deg Mean motion: 14.86472322 rev/day Decay rate: 6.874e-05 rev/day^2 Epoch rev: 2811 Checksum: 307
